Regional Weather Roundup
Issued by NWS

Home | Current Version | Previous Version | Text Only | Print | Product List | Glossary On
Versions: 1 2 3 4 5 6 7 8 9 10 11 12 13 14 15 16 17 18 19 20 21 22 23 24 25 26 27 28 29 30 31 32 33 34 35 36 37 38 39 40 41 42 43 44 45 46 47 48 49 50
000
ASUS43 KFSD 131010
RWRSD

WEATHER ROUNDUP FOR SOUTH DAKOTA
NATIONAL WEATHER SERVICE SIOUX FALLS SD
400 AM CST WED DEC 13 2017

NOTE: "FAIR" INDICATES FEW OR NO CLOUDS BELOW 12,000 FEET WITH NO
SIGNIFICANT WEATHER AND/OR OBSTRUCTIONS TO VISIBILITY.


SDZ001>005-009-010-012>017-131100-
NORTHWEST AND NORTH CENTRAL SOUTH DAKOTA

CITY           SKY/WX    TMP DP  RH WIND       PRES   REMARKS
BUFFALO          N/A     40  22  48 NW33G46   29.86R
FAITH            N/A     42  24  49 NW37G45   29.84R
MOBRIDGE       CLOUDY    45  29  53 NW28G36   29.70R
$$

SDZ012>016-024>037-041>051-057-063-072>074-131100-
SOUTHWEST AND SOUTH CENTRAL SOUTH DAKOTA

CITY           SKY/WX    TMP DP  RH WIND       PRES   REMARKS
RAPID CTY ARPT CLEAR     47  17  30 NW36G47   29.93R
PIERRE         CLOUDY    47  28  47 NW31G39   29.74R
CUSTER         CLEAR     38  14  37 NW14G31   29.96S
ELLSWORTH AFB  CLEAR     46  17  31 NW33G49   29.90
PHILIP         CLEAR     46  23  40 NW26G36   29.88R
PINE RIDGE     CLEAR     39  19  44 NW7       29.97R
SPEARFISH      FAIR      43  18  36 W26G38    30.01R
WINNER         FAIR      53  22  29 NW28G53   29.74F
$$

SDZ004>011-016>023-039-040-131100-
NORTHEAST SOUTH DAKOTA

CITY           SKY/WX    TMP DP  RH WIND       PRES   REMARKS
ABERDEEN       LGT RAIN  41  35  79 NW31G40   29.61R
WATERTOWN      CLOUDY    37  34  89 NW28G38   29.49R
BROOKINGS      CLOUDY    41  32  70 NW30G39   29.47S
SISSETON         N/A     37  34  89 NW28G35   29.49R
$$

SDZ017-020-022-023-036>040-048>070-131100-
SOUTHEAST SOUTH DAKOTA

CITY           SKY/WX    TMP DP  RH WIND       PRES   REMARKS
SIOUX FALLS    LGT RAIN  46  31  55 NW30G44   29.52S
HURON          CLOUDY    47  29  49 NW28G41   29.60R
CHAMBERLAIN    CLOUDY    51  28  41 NW31G40   29.69S
MITCHELL       CLOUDY    50  27  40 NW36G43   29.64R
YANKTON        CLOUDY    52  25  35 NW33G45   29.61R
$$

ABBREVIATIONS USED IN REMARKS
   TC - TEMPERATURE IN CELSIUS
  WCI - WIND CHILL INDEX
   HX - HEAT INDEX
  VSB - VISIBILITY





USA.gov is the U.S. government's official web portal to all federal, state and local government web resources and services.